Volver al catálogo

LYNK TOWER 6

ActivoComunicacionesSSO
NORAD 59123·PAYLOAD·🇺🇸 United States

Lanzado Mar 4, 2024 desde Vandenberg Space Force Base

Loading…

Próximos Pases (próximas 24 horas)

TLE

ActualizadoSource: Space-Track

Época: Sep 14, 2026, 04:39 UTC

1 59123U 24043AB  26257.19391871  .00004312  00000-0  14228-3 0  9994
2 59123  97.5729  36.0099 0008501 292.2842  67.7497 15.31956142140654

Sigue LYNK TOWER 6 en tiempo real con AllMySat

Download on the App Store